Tracking 27423 objects as of 8-Jun-2023
HD Live streaming from Space Station
objects crossing your sky now

STARLINK-3805

Track STARLINK-3805 now!
10-day predictions
STARLINK-3805 is classified as:


NORAD ID: 52377
Int'l Code: 2022-045AY
Perigee: 546.1 km
Apogee: 547.7 km
Inclination: 53.2 °
Period: 95.4 minutes
Semi major axis: 6917 km
RCS: Unknown
Launch date: April 29, 2022
Source: United States (US)
Launch site: AIR FORCE EASTERN TEST RANGE (AFETR)
Your satellite tracking list
Your tracking list is empty




NASA's NSSDC Master Catalog

Two Line Element Set (TLE):
1 52377U 22045AY  23158.91166825  .00000321  00000-0  38229-4 0  9998
2 52377  53.2185  24.4535 0001134  84.5817 275.5304 15.08838585 64079
Source of the keplerian elements: AFSPC